Weather History for Cincinnati, OH

Change the Weather History Date:

Tuesday, November 20, 2012

  Actual Average Record
Temperature  
Mean Temperature 48 °F -  
Max Temperature 62 °F 53 °F 70 °F (1985)
Min Temperature 35 °F 35 °F 19 °F (1959)
Degree Days  
Heating Degree Days 16    
Moisture  
Dew Point 37 °F    
Average Humidity 77    
Maximum Humidity 100    
Minimum Humidity 37    
Precipitation  
Precipitation 0.00 in - - ()
Sea Level Pressure  
Sea Level Pressure 30.16 in    
Wind  
Wind Speed 0 mph (SW)    
Max Wind Speed 5 mph    
Max Gust Speed -    
Visibility 7 miles    
Events      
Averages and records for this station are not official NWS values.
T = Trace of Precipitation, MM = Missing Value Source: NWS Daily Summary

Daily Weather History Graph

Daily Weather History Graph

Search for Another Location

Airport:

Trip Planner

Search our weather history database for the weather conditions in past years. The results will help you decide how hot, cold, wet, or windy it might be!

Date:

Astronomy

Nov. 20, 2012 Rise Set
Actual Time 7:26 AM EST 5:19 PM EST
Civil Twilight 6:57 AM EST 5:48 PM EST
Nautical Twilight 6:25 AM EST 6:21 PM EST
Astronomical Twilight 5:53 AM EST 6:53 PM EST
Moon 1:02 PM EST (11/20) No Moon Set
Length of Visible Light 10h 50m
Length of Day
9h 52m
Waxing Crescent, 51% of the Moon is Illuminated
Nov 20
Waxing Crescent
Nov 28
Full
Dec 6
Last Quarter
Dec 13
New
Dec 20
First Quarter

Hourly Weather History & Observations

Time (EST) Temp. Dew Point Humidity Pressure Visibility Wind Dir Wind Speed Gust Speed Precip Events Conditions
12:53 AM 41.0 °F 37.9 °F 89% 30.20 in 9.0 mi Calm Calm - N/A   Clear
1:53 AM 39.0 °F 36.0 °F 89% 30.19 in 9.0 mi Calm Calm - N/A   Clear
2:53 AM 37.4 °F 35.6 °F 93% 30.18 in 6.0 mi Calm Calm - N/A   Clear
3:53 AM 35.1 °F 35.1 °F 100% 30.19 in 2.5 mi Calm Calm - N/A   Clear
4:06 AM 35.6 °F 33.8 °F 93% 30.18 in 4.0 mi Calm Calm - N/A   Clear
4:21 AM 35.6 °F 33.8 °F 93% 30.18 in 1.8 mi Calm Calm - N/A   Clear
4:33 AM 35.6 °F 35.6 °F 100% 30.18 in 3.0 mi Calm Calm - N/A   Clear
4:38 AM 35.6 °F 33.8 °F 93% 30.18 in 1.8 mi Calm Calm - N/A   Clear
4:49 AM 35.6 °F 33.8 °F 93% 30.18 in 3.0 mi Calm Calm - N/A   Mostly Cloudy
4:53 AM 35.1 °F 34.0 °F 96% 30.18 in 5.0 mi Calm Calm - N/A   Mostly Cloudy
5:09 AM 35.6 °F 33.8 °F 93% 30.17 in 1.8 mi Calm Calm - N/A   Partly Cloudy
5:31 AM 35.6 °F 32.0 °F 87% 30.18 in 3.0 mi Calm Calm - N/A   Partly Cloudy
5:53 AM 36.0 °F 34.0 °F 93% 30.18 in 4.0 mi Calm Calm - N/A   Clear
6:53 AM 35.6 °F 33.8 °F 93% 30.17 in 6.0 mi Calm Calm - N/A   Clear
7:53 AM 36.0 °F 35.1 °F 97% 30.19 in 10.0 mi Calm Calm - N/A   Mostly Cloudy
8:53 AM 41.0 °F 37.9 °F 89% 30.19 in 8.0 mi Calm Calm - N/A   Mostly Cloudy
9:53 AM 48.0 °F 41.0 °F 77% 30.17 in 10.0 mi Calm Calm - N/A   Overcast
10:53 AM 50.0 °F 39.9 °F 68% 30.18 in 10.0 mi Calm Calm - N/A   Overcast
11:53 AM 53.1 °F 41.0 °F 64% 30.16 in 10.0 mi Calm Calm - N/A   Overcast
12:53 PM 57.0 °F 39.9 °F 53% 30.14 in 10.0 mi Calm Calm - N/A   Overcast
1:53 PM 60.1 °F 36.0 °F 41% 30.11 in 10.0 mi SSW 3.5 mph - N/A   Overcast
2:53 PM 62.1 °F 35.1 °F 37% 30.09 in 10.0 mi SSW 4.6 mph - N/A   Partly Cloudy
3:53 PM 61.0 °F 36.0 °F 39% 30.09 in 10.0 mi SSW 3.5 mph - N/A   Overcast
4:53 PM 57.0 °F 37.9 °F 49% 30.09 in 10.0 mi Calm Calm - N/A   Overcast
5:53 PM 52.0 °F 37.0 °F 57% 30.10 in 10.0 mi Calm Calm - N/A   Mostly Cloudy
6:53 PM 53.1 °F 39.0 °F 59% 30.12 in 10.0 mi Calm Calm - N/A   Overcast
7:53 PM 51.1 °F 39.0 °F 63% 30.13 in 10.0 mi Calm Calm - N/A   Overcast
8:53 PM 51.1 °F 39.0 °F 63% 30.13 in 10.0 mi Calm Calm - N/A   Overcast
9:53 PM 48.9 °F 39.9 °F 71% 30.14 in 10.0 mi Calm Calm - N/A   Overcast
10:53 PM 48.0 °F 39.9 °F 74% 30.14 in 10.0 mi Calm Calm - N/A   Overcast
11:53 PM 46.9 °F 39.0 °F 74% 30.14 in 10.0 mi North 3.5 mph - N/A   Mostly Cloudy